AirNav   Everest Fuels
 
 372 users online  

40XS Hank Sasser Airport at Breakaway
Cedar Park, Texas, USA

GOING TO CEDAR PARK?


FAA INFORMATION EFFECTIVE 10 SEPTEMBER 2020

Location

FAA Identifier: 40XS
Lat/Long: 30-31-03.4850N 097-46-50.9450W
30-31.058083N 097-46.849083W
30.5176347,-97.7808181
(estimated)
Elevation: 897 ft. / 273.4 m (surveyed)
Variation: 07E (1985)
From city: 3 miles NE of CEDAR PARK, TX
Time zone: UTC -5 (UTC -6 during Standard Time)
Zip code: 78613

Airport Operations

Airport use: Private use. Permission required prior to landing
Control tower: no
ARTCC: HOUSTON CENTER
FSS: SAN ANGELO FLIGHT SERVICE STATION
Attendance: UNATNDD
Wind indicator: yes
Segmented circle: no
Lights: ACTVT MIRL RWY 15/33 - 122.9.

Airport Communications

WX ASOS at RYW (10 nm W): 119.375 (512-267-1365)
WX AWOS-3PT at GTU (11 nm NE): PHONE 512-869-3430
WX AWOS-3 at EDC (13 nm SE): 118.825 (512-616-2967)
WX AWOS-3PT at T74 (18 nm E): 119.75 (512-352-4995)
  • MULTICOM FREQ 122.9.

Nearby radio navigation aids

VOR radial/distance  VOR name  Freq  Var
CWKr297/15.4CENTEX VORTAC112.8006E
GRKr170/31.0GRAY VOR/DME111.8007E

Airport Services

Runway Information

Runway 15/33

Dimensions: 3000 x 30 ft. / 914 x 9 m
Surface: asphalt
Runway edge lights: non-standard
RUNWAY 15  RUNWAY 33
Latitude: 30-31.290833N30-30.825333N
Longitude: 097-46.946000W097-46.752167W
Elevation: 897.0 ft.897.0 ft.
Traffic pattern: leftright
Obstructions: 30 ft. trees, marked, 300 ft. from runway15 ft. trees, marked, 300 ft. from runway

Airport Ownership and Management from official FAA records

Ownership: Privately-owned
Owner: D & D AIRPORT HOLDINGS LLC
2814 KENAI DRIVE
CEDAR PARK, TX 78613
Phone 512-413-1214
Manager: DON RICHIE
2814 KENAI DRIVE
CEDAR PARK, TX 78613
Phone 512-413-1214
OR 512-260-9419.

Airport Operational Statistics

Aircraft based on the field: 23
Single engine airplanes: 22
Multi engine airplanes: 1
    

Additional Remarks

FOR CD CTC AUSTIN APCH AT 512-269-7865.

Instrument Procedures

There are no published instrument procedures at 40XS.

Some nearby airports with instrument procedures:

KRYW - Lago Vista TX - Rusty Allen Airport (10 nm W)
KGTU - Georgetown Municipal Airport (11 nm NE)
KEDC - Austin Executive Airport (13 nm SE)
3R9 - Lakeway Airpark (15 nm SW)
T74 - Taylor Municipal Airport (18 nm E)
 
Loc | Ops | Rwys | IFR | FBO | Links
Com | Nav | Svcs | Stats | Notes
Area around 40XS (Hank Sasser Airport at Breakaway)
 
Road maps at: MapQuest Bing Google
 
Aerial photo
WARNING: Photo may not be current or correct
Aerial photo of 40XS (Hank Sasser Airport at Breakaway)
Do you have a better or more recent aerial photo of Hank Sasser Airport at Breakaway that you would like to share? If so, please send us your photo.

 
Sectional chart

 
Airport distance calculator
Flying to Hank Sasser Airport at Breakaway? Find the distance to fly.

From to 40XS

Sunrise and sunset
Times for 19-Sep-2020
 Local
(UTC-5)
 Zulu
(UTC)
Morning civil twilight06:5511:55
Sunrise07:1912:19
Sunset19:3000:30
Evening civil twilight19:5400:54

Current date and time
Zulu (UTC)  19-Sep-2020 09:02:25
Local (UTC-5)  19-Sep-2020 04:02:25
 
METAR
KRYW 
10nm W 
190855Z AUTO 02006KT 10SM CLR 19/17 A3010 RMK AO2 T01870167
KGTU 
11nm NE 
190856Z AUTO 36005KT 10SM CLR 19/17 A3009 RMK AO2 SLP184 T01940172 56006
KEDC 
13nm SE 
190855Z AUTO 02007KT 9SM FEW044 20/18 A3007 RMK AO2
KATT 
14nm S 
190851Z AUTO 04004KT 10SM CLR 22/17 A3007 RMK AO2 SLP169 T02220167 55005
KAUS 
15nm S 
190853Z 03009KT 9SM FEW200 22/18 A3005 RMK AO2 SLP165 T02170183 56006
KT74 
18nm E 
190855Z AUTO 36007KT 10SM CLR 19/17 A3006 RMK AO2 T01950175
TAF
KAUS 
15nm S 
190531Z 1906/2012 01007KT P6SM FEW200 FM191700 02013G23KT P6SM SCT100 BKN250
NOTAMs
Click for the latest NOTAMs
NOTAMs are issued by the DoD/FAA and will open in a separate window not controlled by AirNav.

 

 
 

Would you like to see your business listed on this page?

 If your business provides an interesting product or service to pilots, flight crews, aircraft, or users of the Hank Sasser Airport at Breakaway, you should consider listing it here.  To start the listing process, click on the button below
 
Add a business
 

Other Pages about Hank Sasser Airport at Breakaway

Update a link
 
Copyright © AirNav, LLC. All rights reserved. Privacy Policy  Contact